| time (UTC) | temp F | wind direction | speed MPH | gust MPH | rain 1hr in | rain 24hr in | rain mn in | humidity % | barometer mb |
| 20260905152504 | 75 | 28 | 0.0 | 0.0 | 0.00 | 0.00 | 0.00 | 27 | 1023.5 |
| 20260905152004 | 75 | 265 | 0.0 | 0.0 | 0.00 | 0.00 | 0.00 | 26 | 1023.5 |
| 20260905151503 | 75 | 247 | 0.0 | 0.0 | 0.00 | 0.00 | 0.00 | 26 | 1023.5 |
| 20260905151004 | 74 | 229 | 0.0 | 0.0 | 0.00 | 0.00 | 0.00 | 26 | 1023.5 |
| 20260905150503 | 73 | 229 | 0.0 | 0.0 | 0.00 | 0.00 | 0.00 | 27 | 1023.5 |
| 20260905150003 | 72 | 229 | 0.0 | 0.0 | 0.00 | 0.00 | 0.00 | 26 | 1023.3 |
| 20260905145504 | 71 | 229 | 0.0 | 0.0 | 0.00 | 0.00 | 0.00 | 25 | 1023.3 |
| 20260905145005 | 71 | 229 | 0.0 | 0.0 | 0.00 | 0.00 | 0.00 | 25 | 1023.2 |
| 20260905144503 | 70 | 229 | 0.0 | 0.0 | 0.00 | 0.00 | 0.00 | 26 | 1023.3 |
| 20260905144004 | 70 | 229 | 0.0 | 0.0 | 0.00 | 0.00 | 0.00 | 26 | 1023.2 |
| 20260905143503 | 70 | 229 | 0.0 | 0.0 | 0.00 | 0.00 | 0.00 | 26 | 1023.2 |
| 20260905143004 | 69 | 224 | 0.0 | 0.0 | 0.00 | 0.00 | 0.00 | 29 | 1023.3 |
| 20260905142503 | 68 | 223 | 0.0 | 2.0 | 0.00 | 0.00 | 0.00 | 30 | 1023.2 |
| 20260905142003 | 67 | 209 | 0.0 | 0.0 | 0.00 | 0.00 | 0.00 | 33 | 1023.1 |
| 20260905141004 | 65 | 221 | 0.0 | 0.0 | 0.00 | 0.00 | 0.00 | 32 | 1023.0 |
| 20260905140504 | 64 | 221 | 0.0 | 0.0 | 0.00 | 0.00 | 0.00 | 33 | 1023.1 |
| 20260905140003 | 63 | 227 | 0.0 | 0.0 | 0.00 | 0.00 | 0.00 | 35 | 1023.1 |
| 20260905135504 | 62 | 227 | 0.0 | 0.0 | 0.00 | 0.00 | 0.00 | 36 | 1022.7 |
| 20260905135005 | 62 | 227 | 0.0 | 0.0 | 0.00 | 0.00 | 0.00 | 37 | 1022.6 |
| 20260905134503 | 61 | 227 | 0.0 | 0.0 | 0.00 | 0.00 | 0.00 | 37 | 1022.6 |
| 20260905134003 | 61 | 227 | 0.0 | 0.0 | 0.00 | 0.00 | 0.00 | 37 | 1022.5 |
| 20260905133504 | 60 | 234 | 0.0 | 0.0 | 0.00 | 0.00 | 0.00 | 38 | 1022.4 |
| 20260905133003 | 60 | 236 | 0.0 | 0.0 | 0.00 | 0.00 | 0.00 | 38 | 1022.3 |
| 20260905132504 | 59 | 236 | 0.0 | 0.0 | 0.00 | 0.00 | 0.00 | 39 | 1022.3 |
| 20260905131503 | 60 | 236 | 0.0 | 0.0 | 0.00 | 0.00 | 0.00 | 38 | 1022.3 |
| 20260905131004 | 60 | 236 | 0.0 | 0.0 | 0.00 | 0.00 | 0.00 | 38 | 1022.1 |
| 20260905130503 | 60 | 236 | 0.0 | 0.0 | 0.00 | 0.00 | 0.00 | 38 | 1022.1 |
| 20260905130004 | 60 | 236 | 0.0 | 0.0 | 0.00 | 0.00 | 0.00 | 38 | 1022.2 |
| 20260905125504 | 60 | 242 | 0.0 | 0.0 | 0.00 | 0.00 | 0.00 | 39 | 1022.1 |
| 20260905125003 | 60 | 220 | 0.0 | 0.0 | 0.00 | 0.00 | 0.00 | 39 | 1022.2 |
| 20260905124504 | 60 | 220 | 0.0 | 0.0 | 0.00 | 0.00 | 0.00 | 39 | 1022.1 |
| 20260905124003 | 61 | 218 | 0.0 | 0.0 | 0.00 | 0.00 | 0.00 | 39 | 1022.1 |
| 20260905123503 | 62 | 217 | 0.0 | 0.0 | 0.00 | 0.00 | 0.00 | 39 | 1022.1 |
| 20260905123004 | 62 | 217 | 0.0 | 0.0 | 0.00 | 0.00 | 0.00 | 39 | 1022.0 |
| 20260905122504 | 61 | 239 | 0.0 | 0.0 | 0.00 | 0.00 | 0.00 | 40 | 1022.0 |
| 20260905122003 | 60 | 239 | 0.0 | 0.0 | 0.00 | 0.00 | 0.00 | 41 | 1022.0 |
| 20260905121504 | 60 | 235 | 0.0 | 0.0 | 0.00 | 0.00 | 0.00 | 40 | 1021.9 |
| 20260905121004 | 60 | 238 | 0.0 | 0.0 | 0.00 | 0.00 | 0.00 | 41 | 1021.9 |
| 20260905120503 | 60 | 227 | 0.0 | 0.0 | 0.00 | 0.00 | 0.00 | 42 | 1021.9 |
| 20260905120003 | 60 | 244 | 0.0 | 0.0 | 0.00 | 0.00 | 0.00 | 41 | 1022.0 |
| 20260905115504 | 60 | 250 | 0.0 | 0.0 | 0.00 | 0.00 | 0.00 | 41 | 1022.0 |
| 20260905115004 | 60 | 250 | 0.0 | 0.0 | 0.00 | 0.00 | 0.00 | 41 | 1021.9 |
| 20260905114504 | 60 | 250 | 0.0 | 0.0 | 0.00 | 0.00 | 0.00 | 41 | 1021.9 |
| 20260905114003 | 60 | 255 | 0.0 | 0.0 | 0.00 | 0.00 | 0.00 | 40 | 1022.0 |
| 20260905113504 | 61 | 255 | 0.0 | 0.0 | 0.00 | 0.00 | 0.00 | 40 | 1022.1 |
| 20260905112504 | 60 | 255 | 0.0 | 0.0 | 0.00 | 0.00 | 0.00 | 41 | 1022.0 |
| 20260905112003 | 59 | 255 | 0.0 | 0.0 | 0.00 | 0.00 | 0.00 | 41 | 1021.7 |
| 20260905111504 | 59 | 248 | 0.0 | 0.0 | 0.00 | 0.00 | 0.00 | 42 | 1021.8 |
| 20260905111003 | 59 | 217 | 0.0 | 0.0 | 0.00 | 0.00 | 0.00 | 41 | 1021.7 |
| 20260905110503 | 59 | 209 | 0.0 | 0.0 | 0.00 | 0.00 | 0.00 | 42 | 1021.7 |
| 20260905105503 | 60 | 209 | 0.0 | 0.0 | 0.00 | 0.00 | 0.00 | 39 | 1021.9 |
| 20260905105004 | 61 | 209 | 0.0 | 0.0 | 0.00 | 0.00 | 0.00 | 38 | 1021.9 |
| 20260905104004 | 60 | 209 | 0.0 | 0.0 | 0.00 | 0.00 | 0.00 | 39 | 1021.9 |
| 20260905103504 | 60 | 229 | 0.0 | 0.0 | 0.00 | 0.00 | 0.00 | 39 | 1021.9 |
| 20260905103003 | 60 | 229 | 0.0 | 0.0 | 0.00 | 0.00 | 0.00 | 38 | 1021.8 |
| 20260905102504 | 60 | 229 | 0.0 | 0.0 | 0.00 | 0.00 | 0.00 | 38 | 1021.8 |
| 20260905102003 | 61 | 229 | 0.0 | 0.0 | 0.00 | 0.00 | 0.00 | 37 | 1021.8 |
| 20260905101003 | 61 | 237 | 0.0 | 0.0 | 0.00 | 0.00 | 0.00 | 37 | 1021.7 |
| 20260905100503 | 61 | 243 | 0.0 | 0.0 | 0.00 | 0.00 | 0.00 | 37 | 1021.8 |
| 20260905100004 | 61 | 244 | 0.0 | 0.0 | 0.00 | 0.00 | 0.00 | 37 | 1021.6 |
| 20260905095004 | 62 | 244 | 0.0 | 0.0 | 0.00 | 0.00 | 0.00 | 36 | 1021.6 |
| 20260905094503 | 62 | 244 | 0.0 | 0.0 | 0.00 | 0.00 | 0.00 | 36 | 1021.6 |
| 20260905094004 | 62 | 233 | 0.0 | 0.0 | 0.00 | 0.00 | 0.00 | 36 | 1021.6 |
| 20260905093003 | 62 | 257 | 0.0 | 1.0 | 0.00 | 0.00 | 0.00 | 35 | 1021.6 |
| 20260905092504 | 63 | 260 | 0.0 | 0.0 | 0.00 | 0.00 | 0.00 | 34 | 1021.7 |
| 20260905092004 | 63 | 246 | 0.0 | 0.0 | 0.00 | 0.00 | 0.00 | 34 | 1021.6 |
| 20260905091503 | 64 | 245 | 0.0 | 0.0 | 0.00 | 0.00 | 0.00 | 34 | 1021.7 |
| 20260905091003 | 64 | 244 | 0.0 | 0.0 | 0.00 | 0.00 | 0.00 | 35 | 1021.7 |
| 20260905090503 | 63 | 243 | 0.0 | 2.0 | 0.00 | 0.00 | 0.00 | 34 | 1021.7 |
| 20260905090004 | 64 | 242 | 0.0 | 0.0 | 0.00 | 0.00 | 0.00 | 34 | 1021.9 |
| 20260905085505 | 64 | 242 | 0.0 | 0.0 | 0.00 | 0.00 | 0.00 | 34 | 1021.9 |
| 20260905085003 | 65 | 248 | 0.0 | 0.0 | 0.00 | 0.00 | 0.00 | 33 | 1021.9 |
| 20260905084504 | 66 | 256 | 0.0 | 0.0 | 0.00 | 0.00 | 0.00 | 33 | 1021.9 |
| 20260905084003 | 66 | 266 | 0.0 | 0.0 | 0.00 | 0.00 | 0.00 | 33 | 1021.9 |
| 20260905083504 | 66 | 267 | 0.0 | 0.0 | 0.00 | 0.00 | 0.00 | 34 | 1021.8 |
| 20260905083004 | 66 | 291 | 0.0 | 1.0 | 0.00 | 0.00 | 0.00 | 33 | 1021.9 |
| 20260905082503 | 66 | 240 | 0.0 | 2.0 | 0.00 | 0.00 | 0.00 | 33 | 1022.0 |
| 20260905082004 | 66 | 224 | 1.0 | 3.0 | 0.00 | 0.00 | 0.00 | 33 | 1021.9 |
| 20260905081003 | 66 | 194 | 0.0 | 1.0 | 0.00 | 0.00 | 0.00 | 33 | 1021.9 |
| 20260905075504 | 68 | 227 | 0.0 | 2.0 | 0.00 | 0.00 | 0.00 | 32 | 1021.9 |
| 20260905075004 | 68 | 227 | 0.0 | 3.0 | 0.00 | 0.00 | 0.00 | 32 | 1021.8 |
| 20260905074004 | 70 | 212 | 1.0 | 3.0 | 0.00 | 0.00 | 0.00 | 31 | 1021.9 |
| 20260905073503 | 70 | 223 | 2.0 | 5.0 | 0.00 | 0.00 | 0.00 | 30 | 1021.7 |
| 20260905073004 | 70 | 222 | 1.0 | 5.0 | 0.00 | 0.00 | 0.00 | 30 | 1021.7 |
| 20260905072504 | 71 | 218 | 1.0 | 5.0 | 0.00 | 0.00 | 0.00 | 30 | 1021.7 |
| 20260905072004 | 71 | 226 | 1.0 | 3.0 | 0.00 | 0.00 | 0.00 | 30 | 1021.7 |
| 20260905071504 | 71 | 228 | 1.0 | 3.0 | 0.00 | 0.00 | 0.00 | 30 | 1021.7 |
| 20260905071004 | 71 | 225 | 1.0 | 3.0 | 0.00 | 0.00 | 0.00 | 30 | 1021.7 |
| 20260905070003 | 71 | 230 | 1.0 | 5.0 | 0.00 | 0.00 | 0.00 | 30 | 1021.7 |
| 20260905065504 | 72 | 233 | 1.0 | 3.0 | 0.00 | 0.00 | 0.00 | 30 | 1021.7 |
| 20260905065004 | 72 | 227 | 4.0 | 9.0 | 0.00 | 0.00 | 0.00 | 30 | 1021.6 |
| 20260905064504 | 72 | 232 | 1.0 | 5.0 | 0.00 | 0.00 | 0.00 | 30 | 1021.6 |
| 20260905064004 | 72 | 219 | 0.0 | 3.0 | 0.00 | 0.00 | 0.00 | 29 | 1021.6 |
| 20260905063504 | 73 | 222 | 0.0 | 3.0 | 0.00 | 0.00 | 0.00 | 29 | 1021.6 |
| 20260905063006 | 73 | 218 | 3.0 | 8.0 | 0.00 | 0.00 | 0.00 | 29 | 1021.5 |
| 20260905062504 | 73 | 224 | 1.0 | 5.0 | 0.00 | 0.00 | 0.00 | 28 | 1021.5 |
| 20260905062004 | 73 | 219 | 1.0 | 8.0 | 0.00 | 0.00 | 0.00 | 28 | 1021.5 |
| 20260905061004 | 73 | 223 | 3.0 | 10.0 | 0.00 | 0.00 | 0.00 | 28 | 1021.4 |
| 20260905060503 | 74 | 220 | 5.0 | 12.0 | 0.00 | 0.00 | 0.00 | 28 | 1021.4 |
| 20260905060003 | 73 | 225 | 4.0 | 12.0 | 0.00 | 0.00 | 0.00 | 28 | 1021.4 |
| 20260905055503 | 73 | 213 | 4.0 | 12.0 | 0.00 | 0.00 | 0.00 | 28 | 1021.4 |
| 20260905055005 | 73 | 212 | 6.0 | 10.0 | 0.00 | 0.00 | 0.00 | 27 | 1021.3 |
| 20260905054503 | 72 | 202 | 4.0 | 8.0 | 0.00 | 0.00 | 0.00 | 27 | 1021.3 |
| 20260905052504 | 73 | 194 | 6.0 | 10.0 | 0.00 | 0.00 | 0.00 | 25 | 1021.5 |
| 20260905052004 | 74 | 186 | 3.0 | 6.0 | 0.00 | 0.00 | 0.00 | 24 | 1021.5 |
| 20260905051504 | 74 | 183 | 1.0 | 6.0 | 0.00 | 0.00 | 0.00 | 24 | 1021.5 |
| 20260905051003 | 74 | 191 | 3.0 | 6.0 | 0.00 | 0.00 | 0.00 | 24 | 1021.5 |
| 20260905050503 | 75 | 205 | 1.0 | 3.0 | 0.00 | 0.00 | 0.00 | 24 | 1021.5 |
| 20260905050003 | 75 | 247 | 0.0 | 5.0 | 0.00 | 0.00 | 0.00 | 24 | 1021.5 |
| 20260905045504 | 75 | 211 | 1.0 | 6.0 | 0.00 | 0.00 | 0.00 | 24 | 1021.4 |
| 20260905043004 | 76 | 207 | 5.0 | 9.0 | 0.00 | 0.00 | 0.00 | 24 | 1021.0 |
| 20260905042503 | 75 | 207 | 7.0 | 13.0 | 0.00 | 0.00 | 0.00 | 24 | 1021.0 |
| 20260905042003 | 75 | 206 | 4.0 | 10.0 | 0.00 | 0.00 | 0.00 | 24 | 1020.9 |
| 20260905041503 | 75 | 201 | 4.0 | 10.0 | 0.00 | 0.00 | 0.00 | 24 | 1020.9 |
| 20260905041004 | 75 | 192 | 7.0 | 14.0 | 0.00 | 0.00 | 0.00 | 25 | 1020.9 |
| 20260905040504 | 75 | 198 | 3.0 | 10.0 | 0.00 | 0.00 | 0.00 | 25 | 1020.9 |
| 20260905040004 | 75 | 196 | 4.0 | 8.0 | 0.00 | 0.00 | 0.00 | 26 | 1020.9 |
| 20260905035503 | 75 | 188 | 2.0 | 8.0 | 0.00 | 0.00 | 0.00 | 26 | 1020.8 |
| 20260905035004 | 75 | 192 | 0.0 | 1.0 | 0.00 | 0.00 | 0.00 | 27 | 1020.9 |
| 20260905034504 | 74 | 161 | 1.0 | 6.0 | 0.00 | 0.00 | 0.00 | 27 | 1020.8 |
| 20260905034004 | 74 | 164 | 1.0 | 5.0 | 0.00 | 0.00 | 0.00 | 27 | 1020.7 |
| 20260905033504 | 75 | 178 | 0.0 | 0.0 | 0.00 | 0.00 | 0.00 | 26 | 1020.6 |
| 20260905033003 | 76 | 172 | 0.0 | 1.0 | 0.00 | 0.00 | 0.00 | 26 | 1020.5 |
| 20260905032504 | 76 | 181 | 2.0 | 3.0 | 0.00 | 0.00 | 0.00 | 25 | 1020.5 |
| 20260905032003 | 77 | 188 | 3.0 | 7.0 | 0.00 | 0.00 | 0.00 | 24 | 1020.3 |
| 20260905031505 | 77 | 207 | 3.0 | 12.0 | 0.00 | 0.00 | 0.00 | 23 | 1020.2 |
| 20260905030504 | 78 | 214 | 3.0 | 9.0 | 0.00 | 0.00 | 0.00 | 23 | 1019.9 |
| 20260905030004 | 78 | 223 | 3.0 | 12.0 | 0.00 | 0.00 | 0.00 | 23 | 1019.9 |
| 20260905025504 | 78 | 220 | 4.0 | 9.0 | 0.00 | 0.00 | 0.00 | 23 | 1019.8 |
| 20260905025004 | 78 | 222 | 3.0 | 12.0 | 0.00 | 0.00 | 0.00 | 22 | 1019.7 |
| 20260905024503 | 78 | 228 | 3.0 | 9.0 | 0.00 | 0.00 | 0.00 | 22 | 1019.7 |
| 20260905024003 | 78 | 218 | 5.0 | 14.0 | 0.00 | 0.00 | 0.00 | 23 | 1019.6 |
| 20260905023504 | 79 | 226 | 6.0 | 18.0 | 0.00 | 0.00 | 0.00 | 22 | 1019.6 |
| 20260905023003 | 79 | 234 | 8.0 | 14.0 | 0.00 | 0.00 | 0.00 | 21 | 1019.6 |
| 20260905022504 | 79 | 218 | 6.0 | 15.0 | 0.00 | 0.00 | 0.00 | 22 | 1019.7 |
| 20260905022004 | 79 | 224 | 10.0 | 16.0 | 0.00 | 0.00 | 0.00 | 21 | 1019.7 |
| 20260905021504 | 79 | 217 | 7.0 | 18.0 | 0.00 | 0.00 | 0.00 | 21 | 1019.6 |
| 20260905021003 | 79 | 219 | 10.0 | 17.0 | 0.00 | 0.00 | 0.00 | 21 | 1019.7 |
| 20260905020503 | 80 | 241 | 6.0 | 18.0 | 0.00 | 0.00 | 0.00 | 21 | 1019.7 |
| 20260905020003 | 80 | 222 | 9.0 | 18.0 | 0.00 | 0.00 | 0.00 | 21 | 1019.6 |
| 20260905015005 | 81 | 229 | 9.0 | 17.0 | 0.00 | 0.00 | 0.00 | 19 | 1019.7 |
| 20260905014504 | 81 | 209 | 7.0 | 18.0 | 0.00 | 0.00 | 0.00 | 19 | 1019.6 |
| 20260905014005 | 82 | 232 | 13.0 | 23.0 | 0.00 | 0.00 | 0.00 | 18 | 1019.6 |
| 20260905013503 | 82 | 219 | 10.0 | 21.0 | 0.00 | 0.00 | 0.00 | 18 | 1019.6 |
| 20260905013003 | 82 | 233 | 13.0 | 21.0 | 0.00 | 0.00 | 0.00 | 18 | 1019.6 |
| 20260905012503 | 82 | 197 | 10.0 | 18.0 | 0.00 | 0.00 | 0.00 | 17 | 1019.8 |
| 20260905011503 | 82 | 223 | 13.0 | 22.0 | 0.00 | 0.00 | 0.00 | 17 | 1019.8 |
| 20260905011004 | 83 | 221 | 10.0 | 17.0 | 0.00 | 0.00 | 0.00 | 17 | 1019.7 |
| 20260905010504 | 83 | 226 | 13.0 | 20.0 | 0.00 | 0.00 | 0.00 | 16 | 1019.8 |
| 20260905010004 | 83 | 224 | 9.0 | 20.0 | 0.00 | 0.00 | 0.00 | 16 | 1019.7 |
| 20260905005505 | 83 | 233 | 13.0 | 18.0 | 0.00 | 0.00 | 0.00 | 16 | 1019.9 |
| 20260905005004 | 84 | 217 | 10.0 | 20.0 | 0.00 | 0.00 | 0.00 | 16 | 1019.7 |
| 20260905004503 | 84 | 207 | 9.0 | 20.0 | 0.00 | 0.00 | 0.00 | 16 | 1019.8 |
| 20260905004004 | 85 | 226 | 13.0 | 23.0 | 0.00 | 0.00 | 0.00 | 15 | 1019.8 |
| 20260905003504 | 85 | 211 | 11.0 | 21.0 | 0.00 | 0.00 | 0.00 | 15 | 1019.7 |
| 20260905003004 | 86 | 208 | 8.0 | 17.0 | 0.00 | 0.00 | 0.00 | 14 | 1019.8 |
| 20260905002504 | 85 | 213 | 12.0 | 20.0 | 0.00 | 0.00 | 0.00 | 14 | 1019.8 |
| 20260905001503 | 86 | 213 | 12.0 | 20.0 | 0.00 | 0.00 | 0.00 | 15 | 1019.7 |
| 20260905001003 | 86 | 222 | 13.0 | 20.0 | 0.00 | 0.00 | 0.00 | 14 | 1019.9 |
| 20260905000004 | 86 | 207 | 13.0 | 21.0 | 0.00 | 0.00 | 0.00 | 15 | 1019.6 |
| 20260904235504 | 86 | 208 | 16.0 | 24.0 | 0.00 | 0.00 | 0.00 | 14 | 1019.7 |
| 20260904235004 | 87 | 197 | 12.0 | 18.0 | 0.00 | 0.00 | 0.00 | 14 | 1019.8 |
| 20260904234504 | 87 | 209 | 13.0 | 24.0 | 0.00 | 0.00 | 0.00 | 14 | 1019.8 |
| 20260904234004 | 86 | 194 | 13.0 | 29.0 | 0.00 | 0.00 | 0.00 | 14 | 1019.7 |
| 20260904233503 | 86 | 203 | 15.0 | 23.0 | 0.00 | 0.00 | 0.00 | 14 | 1019.7 |
| 20260904233003 | 87 | 215 | 15.0 | 24.0 | 0.00 | 0.00 | 0.00 | 14 | 1019.8 |
| 20260904232503 | 87 | 231 | 12.0 | 22.0 | 0.00 | 0.00 | 0.00 | 14 | 1019.6 |
| 20260904232003 | 87 | 185 | 14.0 | 20.0 | 0.00 | 0.00 | 0.00 | 13 | 1019.8 |
| 20260904231503 | 87 | 206 | 10.0 | 20.0 | 0.00 | 0.00 | 0.00 | 13 | 1019.9 |
| 20260904231004 | 87 | 206 | 13.0 | 22.0 | 0.00 | 0.00 | 0.00 | 13 | 1019.9 |
| 20260904230504 | 87 | 199 | 12.0 | 28.0 | 0.00 | 0.00 | 0.00 | 13 | 1019.9 |
| 20260904230003 | 87 | 199 | 10.0 | 24.0 | 0.00 | 0.00 | 0.00 | 13 | 1020.0 |
| 20260904225504 | 87 | 198 | 14.0 | 25.0 | 0.00 | 0.00 | 0.00 | 13 | 1020.0 |
| 20260904225004 | 87 | 186 | 17.0 | 26.0 | 0.00 | 0.00 | 0.00 | 12 | 1020.0 |
| 20260904224504 | 87 | 192 | 16.0 | 25.0 | 0.00 | 0.00 | 0.00 | 12 | 1020.1 |
| 20260904224003 | 87 | 184 | 16.0 | 26.0 | 0.00 | 0.00 | 0.00 | 12 | 1020.1 |
| 20260904223504 | 87 | 202 | 17.0 | 24.0 | 0.00 | 0.00 | 0.00 | 13 | 1020.2 |
| 20260904223005 | 86 | 192 | 18.0 | 26.0 | 0.00 | 0.00 | 0.00 | 13 | 1020.2 |
| 20260904222504 | 87 | 195 | 16.0 | 28.0 | 0.00 | 0.00 | 0.00 | 14 | 1020.2 |
| 20260904222004 | 87 | 199 | 16.0 | 22.0 | 0.00 | 0.00 | 0.00 | 13 | 1020.2 |
| 20260904221505 | 87 | 214 | 14.0 | 23.0 | 0.00 | 0.00 | 0.00 | 12 | 1020.2 |
| 20260904221004 | 87 | 203 | 16.0 | 26.0 | 0.00 | 0.00 | 0.00 | 13 | 1020.3 |
| 20260904220503 | 86 | 193 | 16.0 | 23.0 | 0.00 | 0.00 | 0.00 | 14 | 1020.3 |
| 20260904220003 | 87 | 202 | 17.0 | 25.0 | 0.00 | 0.00 | 0.00 | 14 | 1020.4 |
| 20260904215503 | 87 | 195 | 14.0 | 21.0 | 0.00 | 0.00 | 0.00 | 14 | 1020.4 |
| 20260904214504 | 87 | 207 | 13.0 | 21.0 | 0.00 | 0.00 | 0.00 | 15 | 1020.5 |
| 20260904214003 | 87 | 202 | 11.0 | 18.0 | 0.00 | 0.00 | 0.00 | 16 | 1020.5 |
| 20260904213504 | 87 | 197 | 13.0 | 20.0 | 0.00 | 0.00 | 0.00 | 16 | 1020.6 |
| 20260904213004 | 87 | 201 | 10.0 | 24.0 | 0.00 | 0.00 | 0.00 | 17 | 1020.6 |
| 20260904212504 | 86 | 193 | 11.0 | 17.0 | 0.00 | 0.00 | 0.00 | 16 | 1020.7 |
| 20260904212003 | 86 | 192 | 14.0 | 20.0 | 0.00 | 0.00 | 0.00 | 17 | 1020.6 |
| 20260904211504 | 86 | 210 | 12.0 | 28.0 | 0.00 | 0.00 | 0.00 | 16 | 1020.6 |
| 20260904211003 | 87 | 183 | 12.0 | 17.0 | 0.00 | 0.00 | 0.00 | 17 | 1020.7 |
| 20260904210503 | 86 | 223 | 12.0 | 18.0 | 0.00 | 0.00 | 0.00 | 17 | 1020.6 |
| 20260904205005 | 87 | 205 | 13.0 | 22.0 | 0.00 | 0.00 | 0.00 | 16 | 1020.7 |
| 20260904203504 | 86 | 208 | 13.0 | 20.0 | 0.00 | 0.00 | 0.00 | 17 | 1020.7 |
| 20260904203003 | 86 | 206 | 14.0 | 22.0 | 0.00 | 0.00 | 0.00 | 16 | 1020.8 |
| 20260904202504 | 86 | 193 | 14.0 | 20.0 | 0.00 | 0.00 | 0.00 | 17 | 1020.8 |
| 20260904202003 | 85 | 199 | 15.0 | 21.0 | 0.00 | 0.00 | 0.00 | 16 | 1020.8 |
| 20260904201503 | 85 | 192 | 16.0 | 22.0 | 0.00 | 0.00 | 0.00 | 17 | 1020.8 |
| 20260904201004 | 85 | 203 | 13.0 | 20.0 | 0.00 | 0.00 | 0.00 | 18 | 1021.0 |
| 20260904200503 | 85 | 208 | 13.0 | 21.0 | 0.00 | 0.00 | 0.00 | 17 | 1021.1 |
| 20260904200004 | 85 | 199 | 10.0 | 21.0 | 0.00 | 0.00 | 0.00 | 18 | 1021.3 |
| 20260904195504 | 85 | 198 | 12.0 | 20.0 | 0.00 | 0.00 | 0.00 | 18 | 1021.4 |
| 20260904194503 | 84 | 227 | 12.0 | 20.0 | 0.00 | 0.00 | 0.00 | 18 | 1021.4 |
| 20260904194003 | 84 | 201 | 13.0 | 20.0 | 0.00 | 0.00 | 0.00 | 18 | 1021.4 |
| 20260904193504 | 84 | 193 | 11.0 | 18.0 | 0.00 | 0.00 | 0.00 | 18 | 1021.6 |
| 20260904193004 | 84 | 200 | 12.0 | 20.0 | 0.00 | 0.00 | 0.00 | 18 | 1021.5 |
| 20260904192504 | 84 | 213 | 12.0 | 16.0 | 0.00 | 0.00 | 0.00 | 18 | 1021.5 |
| 20260904192005 | 84 | 203 | 12.0 | 20.0 | 0.00 | 0.00 | 0.00 | 18 | 1021.6 |
| 20260904191504 | 84 | 190 | 12.0 | 20.0 | 0.00 | 0.00 | 0.00 | 17 | 1021.6 |
| 20260904191003 | 84 | 204 | 12.0 | 18.0 | 0.00 | 0.00 | 0.00 | 17 | 1021.7 |
| 20260904190004 | 84 | 180 | 12.0 | 21.0 | 0.00 | 0.00 | 0.00 | 18 | 1021.7 |
| 20260904185504 | 83 | 205 | 13.0 | 18.0 | 0.00 | 0.00 | 0.00 | 19 | 1021.8 |
| 20260904185004 | 83 | 202 | 12.0 | 21.0 | 0.00 | 0.00 | 0.00 | 19 | 1021.8 |
| 20260904184004 | 83 | 173 | 12.0 | 20.0 | 0.00 | 0.00 | 0.00 | 19 | 1021.7 |
| 20260904183504 | 83 | 166 | 12.0 | 21.0 | 0.00 | 0.00 | 0.00 | 20 | 1021.7 |
| 20260904183004 | 82 | 185 | 9.0 | 20.0 | 0.00 | 0.00 | 0.00 | 20 | 1021.8 |
| 20260904182504 | 82 | 196 | 12.0 | 18.0 | 0.00 | 0.00 | 0.00 | 20 | 1021.9 |
| 20260904182004 | 82 | 184 | 13.0 | 20.0 | 0.00 | 0.00 | 0.00 | 21 | 1021.9 |
| 20260904181504 | 81 | 176 | 8.0 | 13.0 | 0.00 | 0.00 | 0.00 | 21 | 1022.1 |
| 20260904181004 | 82 | 204 | 10.0 | 17.0 | 0.00 | 0.00 | 0.00 | 21 | 1022.1 |
| 20260904180504 | 82 | 201 | 10.0 | 18.0 | 0.00 | 0.00 | 0.00 | 21 | 1021.9 |
| 20260904180003 | 82 | 206 | 7.0 | 18.0 | 0.00 | 0.00 | 0.00 | 21 | 1022.0 |
| 20260904175503 | 82 | 211 | 11.0 | 15.0 | 0.00 | 0.00 | 0.00 | 21 | 1022.1 |
| 20260904175004 | 82 | 217 | 9.0 | 15.0 | 0.00 | 0.00 | 0.00 | 21 | 1022.1 |
| 20260904174503 | 82 | 235 | 9.0 | 15.0 | 0.00 | 0.00 | 0.00 | 21 | 1022.1 |
| 20260904173504 | 81 | 220 | 9.0 | 14.0 | 0.00 | 0.00 | 0.00 | 21 | 1022.1 |
| 20260904172004 | 81 | 193 | 7.0 | 21.0 | 0.00 | 0.00 | 0.00 | 23 | 1022.0 |
| 20260904171504 | 80 | 134 | 2.0 | 7.0 | 0.00 | 0.00 | 0.00 | 27 | 1021.9 |
| 20260904171004 | 80 | 114 | 1.0 | 7.0 | 0.00 | 0.00 | 0.00 | 27 | 1022.0 |
| 20260904170504 | 79 | 144 | 6.0 | 10.0 | 0.00 | 0.00 | 0.00 | 28 | 1022.0 |
| 20260904170003 | 79 | 80 | 3.0 | 7.0 | 0.00 | 0.00 | 0.00 | 28 | 1022.0 |
| 20260904165504 | 78 | 93 | 2.0 | 7.0 | 0.00 | 0.00 | 0.00 | 29 | 1021.9 |
| 20260904165004 | 78 | 124 | 6.0 | 9.0 | 0.00 | 0.00 | 0.00 | 29 | 1021.7 |
| 20260904164504 | 78 | 131 | 2.0 | 8.0 | 0.00 | 0.00 | 0.00 | 28 | 1021.7 |
| 20260904164005 | 78 | 113 | 2.0 | 9.0 | 0.00 | 0.00 | 0.00 | 29 | 1021.7 |
| 20260904163503 | 78 | 138 | 6.0 | 8.0 | 0.00 | 0.00 | 0.00 | 29 | 1021.6 |
| 20260904162504 | 78 | 86 | 2.0 | 6.0 | 0.00 | 0.00 | 0.00 | 29 | 1021.5 |
| 20260904162004 | 78 | 105 | 2.0 | 3.0 | 0.00 | 0.00 | 0.00 | 30 | 1021.4 |
| 20260904161504 | 78 | 94 | 2.0 | 5.0 | 0.00 | 0.00 | 0.00 | 29 | 1021.4 |
| 20260904161004 | 78 | 125 | 1.0 | 3.0 | 0.00 | 0.00 | 0.00 | 30 | 1021.3 |
| 20260904160504 | 77 | 90 | 1.0 | 3.0 | 0.00 | 0.00 | 0.00 | 30 | 1021.3 |
| 20260904160004 | 78 | 96 | 2.0 | 6.0 | 0.00 | 0.00 | 0.00 | 30 | 1021.3 |
| 20260904155504 | 78 | 150 | 2.0 | 3.0 | 0.00 | 0.00 | 0.00 | 30 | 1021.4 |
| 20260904155006 | 77 | 155 | 1.0 | 2.0 | 0.00 | 0.00 | 0.00 | 30 | 1021.4 |
| 20260904154504 | 77 | 155 | 0.0 | 3.0 | 0.00 | 0.00 | 0.00 | 30 | 1021.4 |
| 20260904154004 | 76 | 179 | 0.0 | 1.0 | 0.00 | 0.00 | 0.00 | 30 | 1021.5 |
| 20260904153004 | 77 | 181 | 0.0 | 2.0 | 0.00 | 0.00 | 0.00 | 30 | 1021.4 |